Regional Weather Roundup
Issued by NWS Cleveland, OH

Current Version | Previous Version | Text Only | Print | Product List | Glossary On
Versions: 1 2 3 4 5 6 7 8 9 10 11 12 13 14 15 16 17 18 19 20 21 22 23 24 25 26 27 28 29 30 31 32 33 34 35 36 37 38 39 40 41 42 43 44 45 46 47 48 49 50
000 ASUS41 KCLE 300510 RWRCLE OHIO REGIONAL WEATHER ROUNDUP NATIONAL WEATHER SERVICE CLEVELAND, OH 100 AM EDT TUE JUN 30 2015 NOTE: "FAIR" INDICATES FEW OR NO CLOUDS BELOW 12,000 FEET WITH NO SIGNIFICANT WEATHER AND/OR OBSTRUCTIONS TO VISIBILITY. OHZ001>008-015>018-024>027-034-035-043-044-300600- NORTHWEST OHIO CITY SKY/WX TMP DP RH WIND PRES REMARKS DEFIANCE CLOUDY 63 60 90 CALM 29.83S FINDLAY CLOUDY 63 61 93 CALM 29.81F TOLEDO EXPRESS CLOUDY 62 59 90 CALM 29.82S TOLEDO EXEC CLOUDY 63 58 83 SE3 29.82F LIMA CLOUDY 62 60 93 CALM 29.83S FOG $$ OHZ009>014-019>023-028>033-038-089-300600- NORTHEAST OHIO CITY SKY/WX TMP DP RH WIND PRES REMARKS CLE-HOPKINS CLOUDY 63 59 87 SE5 29.84F CLE-LAKEFRONT CLOUDY 65 59 81 SE6 29.81F CUY CO. ARPT NOT AVBL LORAIN-ELYRIA CLOUDY 62 60 93 SE3 29.83F ASHTABULA CLOUDY 61 59 93 E3 29.86F AKRON-CANTON CLOUDY 63 59 87 SE9 29.83F WOOSTER CLOUDY 62 60 93 CALM 29.83S MANSFIELD PTCLDY 60 60 100 S5 29.83F FOG YOUNGSTOWN CLOUDY 60 57 89 SE8 29.85F $$ OHZ042-051>053-060>062-070>072-077>081-300600- SOUTHWEST OHIO CITY SKY/WX TMP DP RH WIND PRES REMARKS CINC-COVINGTON PTCLDY 67 65 93 CALM 29.85S CINC-LUNKEN PTCLDY 66 65 96 CALM 29.85R HAMILTON PTCLDY 65 64 97 CALM 29.85S FOG DAYTON PTCLDY 64 62 93 CALM 29.85S WRIGHT-PAT AFB PTCLDY 61 61 100 W1 29.83S FOG DAYTON GENERAL CLOUDY 65 64 97 CALM 29.83F FOG WILMINGTON PTCLDY 65 64 97 SW6 29.84S FOG $$ OHZ036-037-039>041-045>050-054>059-063>069-073>076-082>088-300600- CENTRAL AND SOUTHEAST OHIO CITY SKY/WX TMP DP RH WIND PRES REMARKS COLUMBUS CLOUDY 64 63 94 CALM 29.82S OSU AIRPORT MOCLDY 64 63 96 CALM 29.82F FOG BOLTON FIELD CLEAR 64 64 100 W6 29.83F FOG RICKENBACK AFB CLOUDY 63 62 98 CALM 29.82S NEWARK CLOUDY 65 63 93 CALM 29.82F MARION CLOUDY 63 61 93 SW5 29.82F LANCASTER CLOUDY 67 64 90 SW5 29.83S ZANESVILLE NOT AVBL NEW PHILLY CLOUDY 62 61 96 SE3 29.83F $$

USA.gov is the U.S. government's official web portal to all federal, state and local government web resources and services.